Flag for U.S.A. Weather past 2 weeks in Orlando, Florida, U.S.A.

Now
61 °F

Sunny.


Feels Like: 61 °F
Forecast: 44 / 62 °F
Wind: 10 mph from North

Location: Orlando Executive Airport

Current Time: Jan 28, 2015 at 3:45:08 PM

Latest Report: Jan 28, 2015 at 2:53 PM


Visibility: 10 mi

Pressure: 30.19 "Hg

Humidity: 35%

Dew point: 33 °F

Location of OrlandoLocation

Historic Weather in Orlando — Graph

°F

Orlando temperature yesterday

Maximum temperature yesterday: 67 °F (at 2:53 PM)
Minimum temperature yesterday: 44 °F (at 5:53 AM)
Average temperature yesterday: 56 °F

Past Weeks' High & Low Weather Summary

 TemperatureHumidityPressure
High78 °F (Jan 23, 2:53 PM)97% (Jan 16, 5:53 AM)30.26 "Hg (Jan 16, 5:53 AM)
Low44 °F (Jan 27, 5:53 AM)24% (Jan 19, 1:53 PM)29.80 "Hg (Jan 24, 5:03 AM)
Average60 °F72%30.08 "Hg
* Reported Jan 13 2:53 PM — Jan 28 2:53 PM, Orlando, Weather by CustomWeather, © 2014

Note: Actual official high and low records may vary slightly from our data, if they occured in-between our weather recording intervals... More about our weather records

Advertising

Orlando weather history for previous 24 hours

 ConditionsComfort  
Time TempWeatherWind HumidityBarometerVisibility
2:53 PM
Jan 28
61 °FSunny.10 mph35%30.19 "Hg10 mi
1:53 PM61 °FSunny.10 mph32%30.19 "Hg10 mi
12:53 PM58 °FSunny.7 mph35%30.20 "Hg10 mi
11:53 AM56 °FSunny.7 mph39%30.23 "Hg10 mi
10:53 AM54 °FSunny.8 mph47%30.24 "Hg10 mi
9:53 AM51 °FSunny.9 mph50%30.24 "Hg10 mi
8:53 AM48 °FSunny.8 mph59%30.21 "Hg10 mi
7:53 AM46 °FSunny.7 mph63%30.19 "Hg10 mi
6:53 AM47 °FClear.9 mph64%30.16 "Hg10 mi
5:53 AM47 °FClear.7 mph66%30.13 "Hg10 mi
4:53 AM48 °FClear.3 mph63%30.11 "Hg10 mi
3:53 AM50 °FClear.7 mph61%30.10 "Hg10 mi
2:53 AM50 °FClear.7 mph66%30.09 "Hg10 mi
1:53 AM51 °FClear.3 mph63%30.09 "Hg10 mi
12:53 AM51 °FClear.5 mph66%30.08 "Hg10 mi
11:53 PM
Jan 27
54 °FClear.5 mph64%30.07 "Hg10 mi
10:53 PM56 °FClear.7 mph65%30.06 "Hg10 mi
9:53 PM57 °FClear.8 mph64%30.04 "Hg10 mi
8:53 PM59 °FClear.12 mph62%30.02 "Hg10 mi
7:53 PM60 °FClear.15 mph65%29.99 "Hg10 mi
6:53 PM62 °FClear.12 mph58%29.96 "Hg10 mi
5:53 PM64 °FSunny.18 mph52%29.94 "Hg10 mi
4:53 PM66 °FSunny.21 mph45%29.93 "Hg10 mi
3:53 PM67 °FSunny.21 mph39%29.92 "Hg10 mi
Weather by CustomWeather, © 2014

See weather overviewHow to use our weather pages